| time (UTC) | temp C | wind direction | speed KPH | gust KPH | rain 1hr cm | rain 24hr cm | rain mn cm | humidity % | barometer mb |
| 20260508214512 | 13 | 239 | 6.4 | 6.4 | 0.00 | 0.00 | 0.00 | 43 | 1008.9 |
| 20260508214008 | 12 | 258 | 4.8 | 6.4 | 0.00 | 0.00 | 0.00 | 43 | 1008.8 |
| 20260508213506 | 12 | 33 | 3.2 | 4.8 | 0.00 | 0.00 | 0.00 | 43 | 1008.9 |
| 20260508213001 | 12 | 230 | 3.2 | 4.8 | 0.00 | 0.00 | 0.00 | 44 | 1008.9 |
| 20260508212458 | 13 | 5 | 4.8 | 6.4 | 0.00 | 0.00 | 0.00 | 43 | 1008.9 |
| 20260508211954 | 13 | 179 | 3.2 | 4.8 | 0.00 | 0.00 | 0.00 | 45 | 1008.6 |
| 20260508211449 | 12 | 276 | 4.8 | 9.7 | 0.00 | 0.00 | 0.00 | 45 | 1008.7 |
| 20260508210946 | 12 | 62 | 3.2 | 4.8 | 0.00 | 0.00 | 0.00 | 47 | 1008.7 |
| 20260508210443 | 12 | 213 | 4.8 | 6.4 | 0.00 | 0.00 | 0.00 | 46 | 1008.7 |
| 20260508205939 | 12 | 299 | 4.8 | 4.8 | 0.00 | 0.00 | 0.00 | 45 | 1008.7 |
| 20260508205437 | 12 | 14 | 4.8 | 16.1 | 0.00 | 0.00 | 0.00 | 46 | 1008.6 |
| 20260508204933 | 12 | 209 | 6.4 | 9.7 | 0.00 | 0.00 | 0.00 | 45 | 1008.5 |
| 20260508204430 | 12 | 27 | 1.6 | 1.6 | 0.00 | 0.00 | 0.00 | 47 | 1008.4 |
| 20260508203925 | 12 | 215 | 4.8 | 11.3 | 0.00 | 0.00 | 0.00 | 46 | 1008.6 |
| 20260508203422 | 12 | 245 | 6.4 | 6.4 | 0.00 | 0.00 | 0.00 | 47 | 1008.4 |
| 20260508202918 | 13 | 264 | 8.0 | 16.1 | 0.00 | 0.00 | 0.00 | 44 | 1008.4 |
| 20260508202415 | 13 | 222 | 4.8 | 4.8 | 0.00 | 0.00 | 0.00 | 45 | 1008.2 |
| 20260508201907 | 13 | 248 | 6.4 | 9.7 | 0.00 | 0.00 | 0.00 | 45 | 1008.3 |
| 20260508201403 | 12 | 241 | 3.2 | 4.8 | 0.00 | 0.00 | 0.00 | 47 | 1008.4 |
| 20260508200900 | 12 | 265 | 3.2 | 4.8 | 0.00 | 0.00 | 0.00 | 45 | 1008.1 |
| 20260508200357 | 12 | 184 | 1.6 | 1.6 | 0.00 | 0.00 | 0.00 | 47 | 1008.2 |
| 20260508195852 | 12 | 293 | 4.8 | 6.4 | 0.00 | 0.00 | 0.00 | 46 | 1008.1 |
| 20260508195349 | 12 | 274 | 4.8 | 4.8 | 0.00 | 0.00 | 0.00 | 44 | 1008.2 |
| 20260508194846 | 12 | 251 | 8.0 | 12.9 | 0.00 | 0.00 | 0.00 | 44 | 1007.9 |
| 20260508194343 | 12 | 247 | 9.7 | 17.7 | 0.00 | 0.00 | 0.00 | 43 | 1007.8 |
| 20260508193839 | 12 | 282 | 11.3 | 16.1 | 0.00 | 0.00 | 0.00 | 44 | 1007.9 |
| 20260508193336 | 12 | 263 | 4.8 | 6.4 | 0.00 | 0.00 | 0.00 | 45 | 1007.9 |
| 20260508192832 | 12 | 298 | 4.8 | 6.4 | 0.00 | 0.00 | 0.00 | 45 | 1007.9 |
| 20260508192330 | 12 | 290 | 6.4 | 11.3 | 0.00 | 0.00 | 0.00 | 45 | 1007.9 |
| 20260508191827 | 12 | 275 | 4.8 | 6.4 | 0.00 | 0.00 | 0.00 | 45 | 1007.7 |
| 20260508191324 | 12 | 280 | 17.7 | 24.1 | 0.00 | 0.00 | 0.00 | 43 | 1007.7 |
| 20260508190821 | 12 | 218 | 3.2 | 4.8 | 0.00 | 0.00 | 0.00 | 43 | 1007.8 |
| 20260508190318 | 13 | 290 | 6.4 | 6.4 | 0.00 | 0.00 | 0.00 | 43 | 1007.5 |
| 20260508185814 | 13 | 237 | 9.7 | 16.1 | 0.00 | 0.00 | 0.00 | 41 | 1007.4 |
| 20260508185312 | 13 | 86 | 3.2 | 4.8 | 0.00 | 0.00 | 0.00 | 42 | 1007.5 |
| 20260508184809 | 13 | 235 | 6.4 | 9.7 | 0.00 | 0.00 | 0.00 | 42 | 1007.2 |
| 20260508184305 | 13 | 289 | 8.0 | 12.9 | 0.00 | 0.00 | 0.00 | 43 | 1007.3 |
| 20260508183757 | 13 | 313 | 4.8 | 11.3 | 0.00 | 0.00 | 0.00 | 41 | 1007.4 |
| 20260508183253 | 13 | 85 | 3.2 | 4.8 | 0.00 | 0.00 | 0.00 | 43 | 1007.4 |
| 20260508182749 | 13 | 322 | 1.6 | 1.6 | 0.00 | 0.00 | 0.00 | 44 | 1007.4 |
| 20260508182246 | 13 | 325 | 1.6 | 3.2 | 0.00 | 0.00 | 0.00 | 43 | 1007.5 |
| 20260508181742 | 13 | 310 | 4.8 | 6.4 | 0.00 | 0.00 | 0.00 | 43 | 1007.3 |
| 20260508181239 | 13 | 292 | 6.4 | 9.7 | 0.00 | 0.00 | 0.00 | 42 | 1007.5 |
| 20260508180735 | 13 | 255 | 6.4 | 9.7 | 0.00 | 0.00 | 0.00 | 42 | 1007.4 |
| 20260508180232 | 12 | 288 | 1.6 | 3.2 | 0.00 | 0.00 | 0.00 | 46 | 1007.4 |
| 20260508175729 | 13 | 283 | 0.0 | 1.6 | 0.00 | 0.00 | 0.00 | 45 | 1007.2 |
| 20260508175226 | 12 | 234 | 8.0 | 9.7 | 0.00 | 0.00 | 0.00 | 45 | 1007.5 |
| 20260508174724 | 13 | 223 | 0.0 | 1.6 | 0.00 | 0.00 | 0.00 | 42 | 1007.4 |
| 20260508174221 | 13 | 300 | 1.6 | 1.6 | 0.00 | 0.00 | 0.00 | 45 | 1007.3 |
| 20260508173716 | 15 | 10 | 8.0 | 11.3 | 0.00 | 0.00 | 0.00 | 45 | 1007.2 |
| 20260508173213 | 13 | 220 | 6.4 | 6.4 | 0.00 | 0.00 | 0.00 | 45 | 1007.4 |
| 20260508172710 | 13 | 208 | 3.2 | 3.2 | 0.00 | 0.00 | 0.00 | 44 | 1007.4 |
| 20260508172207 | 12 | 250 | 1.6 | 1.6 | 0.00 | 0.00 | 0.00 | 53 | 1007.5 |
| 20260508171703 | 12 | 284 | 6.4 | 9.7 | 0.00 | 0.00 | 0.00 | 47 | 1007.5 |
| 20260508171159 | 12 | 332 | 3.2 | 3.2 | 0.00 | 0.00 | 0.00 | 48 | 1007.3 |
| 20260508170657 | 12 | 43 | 3.2 | 3.2 | 0.00 | 0.00 | 0.00 | 48 | 1007.5 |
| 20260508170155 | 12 | 52 | 4.8 | 6.4 | 0.00 | 0.00 | 0.00 | 46 | 1007.4 |
| 20260508165651 | 13 | 40 | 4.8 | 6.4 | 0.00 | 0.00 | 0.00 | 45 | 1007.3 |
| 20260508165148 | 13 | 318 | 3.2 | 4.8 | 0.00 | 0.00 | 0.00 | 47 | 1007.5 |
| 20260508164645 | 12 | 252 | 0.0 | 0.0 | 0.00 | 0.00 | 0.00 | 49 | 1007.5 |
| 20260508164141 | 12 | 288 | 0.0 | 1.6 | 0.00 | 0.00 | 0.00 | 46 | 1007.5 |
| 20260508163639 | 12 | 14 | 3.2 | 4.8 | 0.00 | 0.00 | 0.00 | 47 | 1007.7 |
| 20260508163136 | 12 | 304 | 4.8 | 6.4 | 0.00 | 0.00 | 0.00 | 44 | 1007.5 |
| 20260508162632 | 12 | 226 | 1.6 | 3.2 | 0.00 | 0.00 | 0.00 | 46 | 1007.6 |
| 20260508162130 | 12 | 228 | 0.0 | 1.6 | 0.00 | 0.00 | 0.00 | 46 | 1007.4 |
| 20260508161626 | 12 | 214 | 1.6 | 1.6 | 0.00 | 0.00 | 0.00 | 44 | 1007.4 |
| 20260508161123 | 12 | 339 | 1.6 | 3.2 | 0.00 | 0.00 | 0.00 | 45 | 1007.5 |
| 20260508160621 | 12 | 308 | 1.6 | 1.6 | 0.00 | 0.00 | 0.00 | 46 | 1007.5 |
| 20260508160119 | 12 | 252 | 4.8 | 4.8 | 0.00 | 0.00 | 0.00 | 44 | 1007.7 |
| 20260508155610 | 12 | 345 | 3.2 | 3.2 | 0.00 | 0.00 | 0.00 | 43 | 1007.5 |
| 20260508155107 | 12 | 266 | 1.6 | 3.2 | 0.00 | 0.00 | 0.00 | 45 | 1007.4 |
| 20260508154604 | 12 | 4 | 3.2 | 3.2 | 0.00 | 0.00 | 0.00 | 44 | 1007.7 |
| 20260508154101 | 12 | 331 | 3.2 | 4.8 | 0.00 | 0.00 | 0.00 | 43 | 1007.6 |
| 20260508153558 | 12 | 348 | 6.4 | 9.7 | 0.00 | 0.00 | 0.00 | 42 | 1007.6 |
| 20260508153054 | 13 | 294 | 1.6 | 1.6 | 0.00 | 0.00 | 0.00 | 42 | 1007.5 |
| 20260508152552 | 13 | 357 | 3.2 | 3.2 | 0.00 | 0.00 | 0.00 | 44 | 1007.8 |
| 20260508152046 | 13 | 258 | 1.6 | 3.2 | 0.00 | 0.00 | 0.00 | 44 | 1007.8 |
| 20260508151543 | 13 | 57 | 1.6 | 3.2 | 0.00 | 0.00 | 0.00 | 45 | 1007.7 |
| 20260508151040 | 13 | 256 | 1.6 | 1.6 | 0.00 | 0.00 | 0.00 | 44 | 1007.7 |
| 20260508150538 | 13 | 16 | 3.2 | 3.2 | 0.00 | 0.00 | 0.00 | 43 | 1007.7 |
| 20260508150033 | 13 | 273 | 0.0 | 1.6 | 0.00 | 0.00 | 0.00 | 41 | 1007.6 |
| 20260508145530 | 12 | 237 | 6.4 | 6.4 | 0.00 | 0.00 | 0.00 | 44 | 1007.8 |
| 20260508145026 | 12 | 311 | 6.4 | 6.4 | 0.00 | 0.00 | 0.00 | 43 | 1007.7 |
| 20260508144524 | 12 | 306 | 0.0 | 0.0 | 0.00 | 0.00 | 0.00 | 44 | 1008.0 |
| 20260508144021 | 12 | 306 | 4.8 | 9.7 | 0.00 | 0.00 | 0.00 | 48 | 1008.0 |
| 20260508143519 | 12 | 270 | 3.2 | 4.8 | 0.00 | 0.00 | 0.00 | 48 | 1007.8 |
| 20260508143015 | 13 | 16 | 6.4 | 11.3 | 0.00 | 0.00 | 0.00 | 45 | 1007.8 |
| 20260508142512 | 13 | 305 | 3.2 | 4.8 | 0.00 | 0.00 | 0.00 | 43 | 1007.8 |
| 20260508142009 | 12 | 229 | 1.6 | 1.6 | 0.00 | 0.00 | 0.00 | 51 | 1008.0 |
| 20260508141505 | 13 | 338 | 4.8 | 6.4 | 0.00 | 0.00 | 0.00 | 44 | 1008.1 |
| 20260508141003 | 13 | 228 | 6.4 | 6.4 | 0.00 | 0.00 | 0.00 | 46 | 1008.2 |
| 20260508140500 | 12 | 292 | 3.2 | 3.2 | 0.00 | 0.00 | 0.00 | 48 | 1008.0 |
| 20260508135955 | 13 | 29 | 3.2 | 3.2 | 0.00 | 0.00 | 0.00 | 46 | 1008.1 |
| 20260508135452 | 13 | 20 | 4.8 | 9.7 | 0.00 | 0.00 | 0.00 | 48 | 1008.2 |
| 20260508134949 | 12 | 357 | 1.6 | 3.2 | 0.00 | 0.00 | 0.00 | 50 | 1008.3 |
| 20260508134445 | 12 | 96 | 1.6 | 1.6 | 0.00 | 0.00 | 0.00 | 48 | 1008.3 |
| 20260508133942 | 12 | 217 | 1.6 | 3.2 | 0.00 | 0.00 | 0.00 | 49 | 1008.5 |
| 20260508133440 | 12 | 261 | 8.0 | 11.3 | 0.00 | 0.00 | 0.00 | 51 | 1008.5 |
| 20260508132936 | 12 | 258 | 6.4 | 9.7 | 0.00 | 0.00 | 0.00 | 50 | 1008.3 |
| 20260508132434 | 12 | 290 | 3.2 | 3.2 | 0.00 | 0.00 | 0.00 | 49 | 1008.6 |
| 20260508131931 | 12 | 197 | 3.2 | 3.2 | 0.00 | 0.00 | 0.00 | 49 | 1008.5 |
| 20260508131426 | 11 | 206 | 0.0 | 0.0 | 0.00 | 0.00 | 0.00 | 54 | 1008.4 |
| 20260508130923 | 12 | 217 | 1.6 | 3.2 | 0.00 | 0.00 | 0.00 | 52 | 1008.5 |
| 20260508130420 | 11 | 239 | 6.4 | 6.4 | 0.00 | 0.00 | 0.00 | 52 | 1008.4 |
| 20260508125916 | 11 | 225 | 4.8 | 6.4 | 0.00 | 0.00 | 0.00 | 53 | 1008.5 |
| 20260508125412 | 12 | 292 | 3.2 | 3.2 | 0.00 | 0.00 | 0.00 | 51 | 1008.4 |
| 20260508124910 | 12 | 235 | 0.0 | 1.6 | 0.00 | 0.00 | 0.00 | 52 | 1008.6 |
| 20260508124408 | 11 | 208 | 0.0 | 0.0 | 0.00 | 0.00 | 0.00 | 51 | 1008.6 |
| 20260508123905 | 11 | 266 | 3.2 | 3.2 | 0.00 | 0.00 | 0.00 | 53 | 1008.4 |
| 20260508123404 | 11 | 265 | 3.2 | 3.2 | 0.00 | 0.00 | 0.00 | 55 | 1008.5 |
| 20260508122859 | 11 | 222 | 4.8 | 6.4 | 0.00 | 0.00 | 0.00 | 54 | 1008.6 |
| 20260508122357 | 10 | 285 | 3.2 | 3.2 | 0.00 | 0.00 | 0.00 | 54 | 1008.5 |
| 20260508121854 | 10 | 312 | 1.6 | 3.2 | 0.00 | 0.00 | 0.00 | 54 | 1008.5 |
| 20260508121352 | 10 | 292 | 4.8 | 4.8 | 0.00 | 0.00 | 0.00 | 53 | 1008.4 |
| 20260508120849 | 10 | 283 | 1.6 | 3.2 | 0.00 | 0.00 | 0.00 | 58 | 1008.3 |
| 20260508120347 | 10 | 226 | 6.4 | 6.4 | 0.00 | 0.00 | 0.00 | 54 | 1008.3 |
| 20260508115844 | 9 | 225 | 3.2 | 3.2 | 0.00 | 0.00 | 0.00 | 58 | 1008.4 |
| 20260508115342 | 9 | 309 | 3.2 | 3.2 | 0.00 | 0.00 | 0.00 | 60 | 1008.6 |
| 20260508114838 | 9 | 219 | 4.8 | 4.8 | 0.00 | 0.00 | 0.00 | 59 | 1008.5 |
| 20260508114335 | 8 | 292 | 1.6 | 3.2 | 0.00 | 0.00 | 0.00 | 63 | 1008.5 |
| 20260508113832 | 8 | 232 | 1.6 | 1.6 | 0.00 | 0.00 | 0.00 | 62 | 1008.5 |
| 20260508113330 | 8 | 266 | 0.0 | 1.6 | 0.00 | 0.00 | 0.00 | 65 | 1008.4 |
| 20260508112826 | 8 | 285 | 1.6 | 1.6 | 0.00 | 0.00 | 0.00 | 64 | 1008.5 |
| 20260508112324 | 8 | 284 | 0.0 | 0.0 | 0.00 | 0.00 | 0.00 | 70 | 1008.5 |
| 20260508111820 | 8 | 204 | 1.6 | 1.6 | 0.00 | 0.00 | 0.00 | 67 | 1008.5 |
| 20260508111317 | 8 | 277 | 0.0 | 0.0 | 0.00 | 0.00 | 0.00 | 68 | 1008.4 |
| 20260508110815 | 8 | 284 | 0.0 | 0.0 | 0.00 | 0.00 | 0.00 | 68 | 1008.4 |
| 20260508110312 | 7 | 286 | 0.0 | 0.0 | 0.00 | 0.00 | 0.00 | 70 | 1008.4 |
| 20260508105811 | 6 | 287 | 0.0 | 0.0 | 0.00 | 0.00 | 0.00 | 78 | 1008.4 |
| 20260508105308 | 5 | 292 | 0.0 | 0.0 | 0.00 | 0.00 | 0.00 | 83 | 1008.5 |
| 20260508104805 | 4 | 292 | 0.0 | 0.0 | 0.00 | 0.00 | 0.00 | 82 | 1008.4 |
| 20260508104302 | 4 | 272 | 0.0 | 0.0 | 0.00 | 0.00 | 0.00 | 85 | 1008.4 |
| 20260508103800 | 3 | 277 | 0.0 | 0.0 | 0.00 | 0.00 | 0.00 | 88 | 1008.5 |
| 20260508103256 | 3 | 276 | 0.0 | 0.0 | 0.00 | 0.00 | 0.00 | 87 | 1008.4 |
| 20260508102754 | 2 | 304 | 0.0 | 0.0 | 0.00 | 0.00 | 0.00 | 90 | 1008.2 |
| 20260508102252 | 1 | 311 | 0.0 | 0.0 | 0.00 | 0.00 | 0.00 | 92 | 1008.2 |
| 20260508101749 | 1 | 327 | 0.0 | 0.0 | 0.00 | 0.00 | 0.00 | 94 | 1008.2 |
| 20260508101246 | 1 | 311 | 0.0 | 0.0 | 0.00 | 0.00 | 0.00 | 96 | 1008.0 |
| 20260508100744 | 0 | 319 | 0.0 | 0.0 | 0.00 | 0.00 | 0.00 | 96 | 1008.2 |
| 20260508100241 | 0 | 294 | 0.0 | 0.0 | 0.00 | 0.00 | 0.00 | 96 | 1008.0 |
| 20260508095737 | 0 | 87 | 0.0 | 0.0 | 0.00 | 0.00 | 0.00 | 96 | 1007.9 |
| 20260508095235 | 0 | 293 | 0.0 | 0.0 | 0.00 | 0.00 | 0.00 | 96 | 1007.9 |
| 20260508094732 | 0 | 298 | 0.0 | 0.0 | 0.00 | 0.00 | 0.00 | 96 | 1007.7 |
| 20260508094229 | 0 | 309 | 0.0 | 0.0 | 0.00 | 0.00 | 0.00 | 96 | 1007.7 |
| 20260508093726 | 0 | 291 | 0.0 | 0.0 | 0.00 | 0.00 | 0.00 | 96 | 1007.7 |
| 20260508093224 | 0 | 283 | 0.0 | 0.0 | 0.00 | 0.00 | 0.00 | 96 | 1007.7 |
| 20260508092720 | 0 | 281 | 0.0 | 0.0 | 0.00 | 0.00 | 0.00 | 96 | 1007.8 |
| 20260508092219 | 0 | 281 | 0.0 | 0.0 | 0.00 | 0.00 | 0.00 | 96 | 1007.5 |
| 20260508091716 | 0 | 283 | 0.0 | 0.0 | 0.00 | 0.00 | 0.00 | 95 | 1007.6 |
| 20260508091213 | 0 | 271 | 0.0 | 0.0 | 0.00 | 0.00 | 0.00 | 95 | 1007.2 |
| 20260508090711 | 0 | 288 | 0.0 | 0.0 | 0.00 | 0.00 | 0.00 | 94 | 1007.3 |
| 20260508090208 | 0 | 299 | 0.0 | 0.0 | 0.00 | 0.00 | 0.00 | 94 | 1007.2 |
| 20260508085704 | 0 | 300 | 0.0 | 0.0 | 0.00 | 0.00 | 0.00 | 94 | 1007.1 |
| 20260508085201 | 0 | 312 | 0.0 | 0.0 | 0.00 | 0.00 | 0.00 | 94 | 1007.2 |
| 20260508084657 | 0 | 311 | 0.0 | 0.0 | 0.00 | 0.00 | 0.00 | 94 | 1007.0 |
| 20260508084155 | 0 | 300 | 0.0 | 0.0 | 0.00 | 0.00 | 0.00 | 94 | 1007.0 |
| 20260508083652 | 0 | 286 | 0.0 | 0.0 | 0.00 | 0.00 | 0.00 | 94 | 1007.1 |
| 20260508083150 | 0 | 286 | 0.0 | 0.0 | 0.00 | 0.00 | 0.00 | 94 | 1007.0 |
| 20260508082644 | 0 | 286 | 0.0 | 0.0 | 0.00 | 0.00 | 0.00 | 93 | 1006.9 |
| 20260508082141 | 0 | 286 | 0.0 | 0.0 | 0.00 | 0.00 | 0.00 | 92 | 1007.0 |
| 20260508081634 | 1 | 286 | 0.0 | 0.0 | 0.00 | 0.00 | 0.00 | 92 | 1006.9 |
| 20260508081130 | 0 | 287 | 0.0 | 0.0 | 0.00 | 0.00 | 0.00 | 92 | 1007.0 |
| 20260508080627 | 0 | 278 | 0.0 | 0.0 | 0.00 | 0.00 | 0.00 | 92 | 1006.9 |
| 20260508080126 | 1 | 298 | 0.0 | 0.0 | 0.00 | 0.00 | 0.00 | 92 | 1006.9 |
| 20260508075621 | 1 | 318 | 0.0 | 0.0 | 0.00 | 0.00 | 0.00 | 92 | 1006.8 |
| 20260508075119 | 1 | 337 | 0.0 | 0.0 | 0.00 | 0.00 | 0.00 | 92 | 1006.6 |
| 20260508074616 | 1 | 331 | 0.0 | 0.0 | 0.00 | 0.00 | 0.00 | 90 | 1006.7 |
| 20260508074113 | 1 | 285 | 0.0 | 0.0 | 0.00 | 0.00 | 0.00 | 90 | 1006.4 |
| 20260508073611 | 1 | 330 | 0.0 | 0.0 | 0.00 | 0.00 | 0.00 | 90 | 1006.4 |
| 20260508073108 | 1 | 290 | 0.0 | 0.0 | 0.00 | 0.00 | 0.00 | 89 | 1006.4 |
| 20260508072603 | 2 | 281 | 0.0 | 0.0 | 0.00 | 0.00 | 0.00 | 88 | 1006.6 |
| 20260508072101 | 2 | 278 | 0.0 | 0.0 | 0.00 | 0.00 | 0.00 | 88 | 1006.5 |
| 20260508071559 | 2 | 278 | 0.0 | 0.0 | 0.00 | 0.00 | 0.00 | 87 | 1006.6 |
| 20260508071057 | 2 | 284 | 0.0 | 0.0 | 0.00 | 0.00 | 0.00 | 85 | 1006.6 |
| 20260508070554 | 2 | 290 | 0.0 | 0.0 | 0.00 | 0.00 | 0.00 | 85 | 1006.7 |
| 20260508070052 | 2 | 279 | 0.0 | 0.0 | 0.00 | 0.00 | 0.00 | 85 | 1006.8 |
| 20260508065549 | 2 | 277 | 0.0 | 0.0 | 0.00 | 0.00 | 0.00 | 84 | 1006.7 |
| 20260508065047 | 2 | 271 | 0.0 | 0.0 | 0.00 | 0.00 | 0.00 | 84 | 1006.7 |
| 20260508064544 | 2 | 273 | 0.0 | 0.0 | 0.00 | 0.00 | 0.00 | 85 | 1006.9 |
| 20260508064042 | 2 | 265 | 0.0 | 0.0 | 0.00 | 0.00 | 0.00 | 85 | 1006.6 |
| 20260508063538 | 2 | 272 | 0.0 | 0.0 | 0.00 | 0.00 | 0.00 | 84 | 1006.9 |
| 20260508063037 | 2 | 277 | 0.0 | 0.0 | 0.00 | 0.00 | 0.00 | 85 | 1007.0 |
| 20260508062529 | 3 | 274 | 0.0 | 0.0 | 0.00 | 0.00 | 0.00 | 85 | 1006.9 |
| 20260508062025 | 3 | 267 | 0.0 | 0.0 | 0.00 | 0.00 | 0.00 | 86 | 1007.2 |
| 20260508061523 | 3 | 279 | 0.0 | 0.0 | 0.00 | 0.00 | 0.00 | 83 | 1007.1 |
| 20260508061020 | 3 | 283 | 0.0 | 0.0 | 0.00 | 0.00 | 0.00 | 83 | 1007.3 |
| 20260508060516 | 3 | 290 | 0.0 | 0.0 | 0.00 | 0.00 | 0.00 | 82 | 1007.2 |
| 20260508060014 | 3 | 280 | 0.0 | 0.0 | 0.00 | 0.00 | 0.00 | 82 | 1007.2 |
| 20260508055509 | 3 | 284 | 0.0 | 0.0 | 0.00 | 0.00 | 0.00 | 80 | 1007.3 |
| 20260508055007 | 3 | 286 | 0.0 | 0.0 | 0.00 | 0.00 | 0.00 | 78 | 1007.3 |
| 20260508054503 | 3 | 301 | 0.0 | 0.0 | 0.00 | 0.00 | 0.00 | 78 | 1007.3 |
| 20260508054000 | 4 | 319 | 0.0 | 0.0 | 0.00 | 0.00 | 0.00 | 77 | 1007.4 |
| 20260508053457 | 4 | 294 | 0.0 | 0.0 | 0.00 | 0.00 | 0.00 | 76 | 1007.3 |
| 20260508052955 | 4 | 311 | 0.0 | 0.0 | 0.00 | 0.00 | 0.00 | 76 | 1007.3 |
| 20260508052452 | 4 | 285 | 0.0 | 0.0 | 0.00 | 0.00 | 0.00 | 76 | 1007.4 |
| 20260508051948 | 5 | 292 | 0.0 | 0.0 | 0.00 | 0.00 | 0.00 | 73 | 1007.5 |
| 20260508051444 | 4 | 280 | 0.0 | 0.0 | 0.00 | 0.00 | 0.00 | 72 | 1007.4 |
| 20260508050940 | 5 | 295 | 0.0 | 0.0 | 0.00 | 0.00 | 0.00 | 75 | 1007.5 |
| 20260508050436 | 5 | 344 | 0.0 | 0.0 | 0.00 | 0.00 | 0.00 | 72 | 1007.6 |
| 20260508045933 | 5 | 282 | 0.0 | 0.0 | 0.00 | 0.00 | 0.00 | 74 | 1007.6 |
| 20260508045425 | 5 | 281 | 0.0 | 0.0 | 0.00 | 0.00 | 0.00 | 74 | 1007.5 |
| 20260508044923 | 5 | 281 | 0.0 | 0.0 | 0.00 | 0.00 | 0.00 | 74 | 1007.6 |
| 20260508044420 | 5 | 286 | 0.0 | 0.0 | 0.00 | 0.00 | 0.00 | 71 | 1007.4 |
| 20260508043915 | 6 | 284 | 0.0 | 0.0 | 0.00 | 0.00 | 0.00 | 70 | 1007.4 |
| 20260508043413 | 6 | 276 | 1.6 | 1.6 | 0.00 | 0.00 | 0.00 | 67 | 1007.6 |
| 20260508042908 | 6 | 278 | 0.0 | 0.0 | 0.00 | 0.00 | 0.00 | 66 | 1007.4 |
| 20260508042401 | 6 | 301 | 0.0 | 0.0 | 0.00 | 0.00 | 0.00 | 65 | 1007.6 |
| 20260508041858 | 6 | 303 | 0.0 | 0.0 | 0.00 | 0.00 | 0.00 | 67 | 1007.6 |
| 20260508041353 | 6 | 286 | 0.0 | 0.0 | 0.00 | 0.00 | 0.00 | 70 | 1007.8 |
| 20260508040850 | 5 | 332 | 0.0 | 0.0 | 0.00 | 0.00 | 0.00 | 73 | 1007.6 |
| 20260508040348 | 6 | 280 | 0.0 | 0.0 | 0.00 | 0.00 | 0.00 | 75 | 1007.8 |
| 20260508035845 | 6 | 272 | 0.0 | 0.0 | 0.00 | 0.15 | 0.15 | 74 | 1007.7 |
| 20260508035342 | 6 | 283 | 0.0 | 0.0 | 0.00 | 0.15 | 0.15 | 69 | 1007.6 |
| 20260508034838 | 6 | 291 | 0.0 | 0.0 | 0.00 | 0.15 | 0.15 | 68 | 1007.7 |
| 20260508034336 | 6 | 300 | 0.0 | 0.0 | 0.00 | 0.15 | 0.15 | 67 | 1007.7 |
| 20260508033833 | 6 | 304 | 0.0 | 0.0 | 0.00 | 0.15 | 0.15 | 67 | 1007.5 |
| 20260508033331 | 6 | 290 | 0.0 | 0.0 | 0.00 | 0.15 | 0.15 | 68 | 1007.7 |
| 20260508032828 | 6 | 282 | 0.0 | 0.0 | 0.00 | 0.15 | 0.15 | 67 | 1007.9 |
| 20260508032326 | 7 | 279 | 0.0 | 0.0 | 0.00 | 0.15 | 0.15 | 67 | 1007.6 |
| 20260508031822 | 7 | 280 | 0.0 | 0.0 | 0.00 | 0.15 | 0.15 | 65 | 1007.8 |
| 20260508031319 | 7 | 282 | 0.0 | 0.0 | 0.00 | 0.15 | 0.15 | 63 | 1007.8 |
| 20260508030815 | 8 | 273 | 0.0 | 0.0 | 0.00 | 0.15 | 0.15 | 63 | 1007.8 |
| 20260508030313 | 8 | 280 | 0.0 | 0.0 | 0.00 | 0.15 | 0.15 | 58 | 1007.6 |
| 20260508025809 | 8 | 269 | 0.0 | 0.0 | 0.00 | 0.15 | 0.15 | 56 | 1007.7 |
| 20260508025307 | 8 | 286 | 0.0 | 0.0 | 0.00 | 0.15 | 0.15 | 54 | 1007.6 |
| 20260508024803 | 8 | 315 | 0.0 | 1.6 | 0.00 | 0.15 | 0.15 | 53 | 1007.7 |
| 20260508024300 | 8 | 284 | 1.6 | 1.6 | 0.00 | 0.15 | 0.15 | 52 | 1007.6 |
| 20260508023756 | 9 | 277 | 0.0 | 0.0 | 0.00 | 0.15 | 0.15 | 52 | 1007.5 |
| 20260508023253 | 9 | 251 | 0.0 | 0.0 | 0.00 | 0.15 | 0.15 | 51 | 1007.5 |
| 20260508022749 | 9 | 299 | 0.0 | 0.0 | 0.00 | 0.15 | 0.15 | 51 | 1007.5 |
| 20260508022246 | 9 | 275 | 1.6 | 1.6 | 0.00 | 0.15 | 0.15 | 50 | 1007.1 |
| 20260508021743 | 9 | 263 | 0.0 | 0.0 | 0.00 | 0.15 | 0.15 | 50 | 1007.1 |
| 20260508021238 | 10 | 264 | 0.0 | 1.6 | 0.00 | 0.15 | 0.15 | 51 | 1007.3 |
| 20260508020735 | 10 | 270 | 1.6 | 1.6 | 0.00 | 0.15 | 0.15 | 50 | 1007.3 |
| 20260508020233 | 10 | 264 | 0.0 | 0.0 | 0.00 | 0.15 | 0.15 | 49 | 1007.3 |
| 20260508015730 | 10 | 287 | 1.6 | 1.6 | 0.00 | 0.15 | 0.15 | 50 | 1007.3 |
| 20260508015227 | 10 | 286 | 1.6 | 1.6 | 0.00 | 0.15 | 0.15 | 49 | 1007.1 |
| 20260508014724 | 10 | 313 | 0.0 | 0.0 | 0.00 | 0.15 | 0.15 | 48 | 1007.0 |
| 20260508014221 | 10 | 2 | 6.4 | 9.7 | 0.00 | 0.15 | 0.15 | 47 | 1007.1 |
| 20260508013716 | 10 | 57 | 1.6 | 1.6 | 0.00 | 0.15 | 0.15 | 48 | 1006.9 |
| 20260508013213 | 10 | 288 | 3.2 | 6.4 | 0.00 | 0.15 | 0.15 | 47 | 1006.8 |
| 20260508012711 | 10 | 247 | 1.6 | 3.2 | 0.00 | 0.15 | 0.15 | 47 | 1007.0 |
| 20260508012207 | 10 | 356 | 6.4 | 6.4 | 0.00 | 0.15 | 0.15 | 46 | 1006.9 |
| 20260508011706 | 10 | 274 | 1.6 | 3.2 | 0.00 | 0.15 | 0.15 | 47 | 1006.6 |
| 20260508011203 | 11 | 271 | 1.6 | 1.6 | 0.00 | 0.15 | 0.15 | 48 | 1006.7 |
| 20260508010659 | 11 | 332 | 0.0 | 1.6 | 0.00 | 0.15 | 0.15 | 45 | 1006.7 |
| 20260508010157 | 11 | 28 | 4.8 | 4.8 | 0.00 | 0.15 | 0.15 | 46 | 1006.5 |
| 20260508005654 | 11 | 296 | 1.6 | 1.6 | 0.00 | 0.15 | 0.15 | 45 | 1006.6 |
| 20260508005151 | 11 | 303 | 0.0 | 1.6 | 0.00 | 0.15 | 0.15 | 47 | 1006.3 |
| 20260508004646 | 11 | 359 | 1.6 | 1.6 | 0.00 | 0.15 | 0.15 | 46 | 1006.4 |
| 20260508004143 | 11 | 292 | 0.0 | 0.0 | 0.00 | 0.15 | 0.15 | 46 | 1006.2 |
| 20260508003639 | 11 | 279 | 0.0 | 0.0 | 0.00 | 0.15 | 0.15 | 47 | 1006.1 |
| 20260508003137 | 11 | 335 | 0.0 | 0.0 | 0.00 | 0.15 | 0.15 | 44 | 1005.9 |
| 20260508002633 | 11 | 276 | 1.6 | 3.2 | 0.00 | 0.15 | 0.15 | 44 | 1005.7 |
| 20260508002132 | 12 | 313 | 0.0 | 0.0 | 0.00 | 0.15 | 0.15 | 42 | 1005.8 |
| 20260508001626 | 12 | 340 | 3.2 | 4.8 | 0.00 | 0.15 | 0.15 | 43 | 1005.7 |
| 20260508001123 | 12 | 244 | 3.2 | 3.2 | 0.00 | 0.15 | 0.15 | 42 | 1005.6 |
| 20260508000618 | 12 | 302 | 3.2 | 3.2 | 0.00 | 0.15 | 0.15 | 43 | 1005.5 |
| 20260508000116 | 12 | 350 | 1.6 | 1.6 | 0.00 | 0.15 | 0.15 | 41 | 1005.4 |
| 20260507235613 | 12 | 29 | 0.0 | 0.0 | 0.00 | 0.15 | 0.15 | 44 | 1005.4 |
| 20260507235110 | 12 | 273 | 3.2 | 4.8 | 0.00 | 0.15 | 0.15 | 43 | 1005.6 |
| 20260507234606 | 12 | 315 | 0.0 | 0.0 | 0.00 | 0.15 | 0.15 | 43 | 1005.5 |
| 20260507234103 | 13 | 7 | 1.6 | 4.8 | 0.00 | 0.15 | 0.15 | 42 | 1005.4 |
| 20260507233600 | 13 | 347 | 8.0 | 11.3 | 0.00 | 0.15 | 0.15 | 41 | 1005.2 |
| 20260507233059 | 13 | 308 | 1.6 | 1.6 | 0.00 | 0.15 | 0.15 | 44 | 1005.3 |
| 20260507232554 | 13 | 15 | 1.6 | 1.6 | 0.00 | 0.15 | 0.15 | 41 | 1005.1 |
| 20260507232052 | 13 | 279 | 0.0 | 1.6 | 0.00 | 0.15 | 0.15 | 41 | 1005.2 |
| 20260507231548 | 14 | 308 | 3.2 | 4.8 | 0.00 | 0.15 | 0.15 | 40 | 1005.2 |
| 20260507231046 | 14 | 17 | 1.6 | 3.2 | 0.00 | 0.15 | 0.15 | 40 | 1005.1 |
| 20260507230542 | 15 | 288 | 1.6 | 3.2 | 0.00 | 0.15 | 0.15 | 40 | 1004.9 |
| 20260507230038 | 15 | 245 | 3.2 | 4.8 | 0.00 | 0.15 | 0.15 | 39 | 1004.9 |
| 20260507225533 | 14 | 309 | 3.2 | 4.8 | 0.00 | 0.15 | 0.15 | 40 | 1004.8 |
| 20260507225030 | 14 | 197 | 9.7 | 12.9 | 0.00 | 0.15 | 0.15 | 39 | 1004.7 |
| 20260507224526 | 15 | 294 | 3.2 | 4.8 | 0.00 | 0.15 | 0.15 | 39 | 1004.8 |
| 20260507224023 | 15 | 224 | 4.8 | 4.8 | 0.00 | 0.15 | 0.15 | 39 | 1004.5 |
| 20260507223519 | 15 | 321 | 8.0 | 11.3 | 0.00 | 0.15 | 0.15 | 38 | 1004.6 |
| 20260507223016 | 15 | 231 | 4.8 | 6.4 | 0.00 | 0.15 | 0.15 | 39 | 1004.5 |
| 20260507222513 | 15 | 255 | 3.2 | 3.2 | 0.00 | 0.15 | 0.15 | 38 | 1004.4 |
| 20260507222009 | 15 | 257 | 6.4 | 6.4 | 0.00 | 0.15 | 0.15 | 36 | 1004.5 |
| 20260507221506 | 15 | 277 | 3.2 | 3.2 | 0.00 | 0.15 | 0.15 | 40 | 1004.2 |
| 20260507221003 | 15 | 238 | 6.4 | 6.4 | 0.00 | 0.15 | 0.15 | 40 | 1004.3 |
| 20260507220500 | 15 | 239 | 3.2 | 3.2 | 0.00 | 0.15 | 0.15 | 37 | 1004.2 |
| 20260507215957 | 15 | 269 | 6.4 | 9.7 | 0.00 | 0.15 | 0.15 | 38 | 1004.3 |
| 20260507215453 | 15 | 226 | 8.0 | 9.7 | 0.00 | 0.15 | 0.15 | 36 | 1004.3 |
| 20260507214951 | 16 | 281 | 6.4 | 9.7 | 0.00 | 0.15 | 0.15 | 35 | 1004.2 |